Home   Weather   Las Cruces   Past weeks

Flag for USA Past Weather in Las Cruces, New Mexico, USA — Yesterday and Last 2 Weeks

Now
35 °F

Sunny.


Feels Like: 33 °F
Forecast: 36 / 74 °F
Wind: 3 mph from West

Location: Las Cruces International

Current Time: Apr 30, 2017 at 7:04:44 am

Latest Report: Apr 30, 2017 at 6:35 am


Visibility: 10 mi

Pressure: 30.08 "Hg (25.96 "Hg at 1187m altitude)

Humidity: 80%

Dew Point: 30 °F

Location of Las CrucesLocation

Past Weather in Las Cruces — Graph

°F

Las Cruces Temperature Yesterday

Maximum temperature yesterday: 60 °F (at 4:15 pm)
Minimum temperature yesterday: 42 °F (at 2:35 am)
Average temperature yesterday: 51 °F

High & Low Weather Summary for the Past Weeks

 TemperatureHumidityPressure
High88 °F (Apr 20, 4:35 pm)93% (Apr 29, 1:35 am)30.23 "Hg (Apr 29, 1:35 am)
Low32 °F (Apr 30, 4:55 am)5% (Apr 21, 4:35 pm)29.59 "Hg (Apr 28, 5:35 pm)
Average67 °F22%29.95 "Hg
* Reported Apr 15 5:15 am — Apr 30 5:55 am, Las Cruces, Weather by CustomWeather, © 2017

Note: Actual official high and low records may vary slightly from our data, if they occured in-between our weather recording intervals... More about our weather records

Advertising

Las Cruces Weather History for the Previous 24 Hours

Scroll right to see more
 ConditionsComfort  
Time TempWeatherWind HumidityBarometerVisibility
5:55 am
Sun, Apr 30
34 °FClear.3 mph87%30.08 "Hg10 mi
5:35 am33 °FClear.3 mph88%30.08 "Hg10 mi
5:15 am32 °FClear.3 mph91%30.09 "Hg10 mi
4:55 am32 °FClear.No wind89%30.09 "Hg10 mi
4:35 am33 °FClear.No wind87%30.09 "Hg10 mi
3:55 am35 °FClear.5 mph83%30.09 "Hg10 mi
3:35 am36 °FClear.7 mph82%30.08 "Hg10 mi
3:15 am36 °FClear.5 mph84%30.09 "Hg10 mi
2:55 am37 °FClear.5 mph81%30.09 "Hg10 mi
2:35 am37 °FClear.5 mph82%30.09 "Hg10 mi
2:15 am37 °FClear.7 mph81%30.09 "Hg10 mi
1:55 am36 °FClear.7 mph83%30.10 "Hg10 mi
1:35 am38 °FClear.3 mph78%30.10 "Hg10 mi
1:15 am39 °FClear.5 mph77%30.10 "Hg10 mi
12:55 am39 °FClear.7 mph76%30.09 "Hg10 mi
12:35 am40 °FClear.5 mph74%30.09 "Hg10 mi
12:15 am41 °FClear.6 mph71%30.09 "Hg10 mi
11:55 pm
Sat, Apr 29
43 °FClear.6 mph66%30.09 "Hg10 mi
11:35 pm45 °FClear.7 mph60%30.08 "Hg10 mi
11:15 pm46 °FClear.7 mph57%30.08 "Hg10 mi
10:55 pm46 °FClear.6 mph55%30.08 "Hg10 mi
10:35 pm46 °FClear.7 mph53%30.07 "Hg10 mi
9:55 pm46 °FClear.5 mph52%30.05 "Hg10 mi
9:35 pm46 °FClear.No wind51%30.03 "Hg10 mi
9:15 pm49 °FClear.No wind43%30.03 "Hg10 mi
8:55 pm51 °FPassing clouds.7 mph36%30.01 "Hg10 mi
8:35 pm53 °FPassing clouds.6 mph34%30.00 "Hg10 mi
8:15 pm53 °FPassing clouds.7 mph33%30.00 "Hg10 mi
7:55 pm54 °FPassing clouds.8 mph33%29.99 "Hg10 mi
7:35 pm54 °FPartly sunny.12 mph32%29.98 "Hg10 mi
7:15 pm54 °FSunny.17 mph30%29.96 "Hg10 mi
6:55 pm55 °FPartly sunny.12 mph29%29.95 "Hg10 mi
6:15 pm57 °FPartly sunny.20 mph26%29.94 "Hg10 mi
5:55 pm58 °FOvercast.12 mph25%29.92 "Hg10 mi
5:35 pm57 °FOvercast.12 mph25%29.92 "Hg10 mi
5:15 pm59 °FScattered clouds.10 mph24%29.91 "Hg10 mi
4:55 pm59 °FSunny.5 mph24%29.90 "Hg10 mi
4:35 pm60 °FSunny.9 mph23%29.91 "Hg10 mi
4:15 pm60 °FSunny.13 mph24%29.90 "Hg10 mi
3:55 pm59 °FSunny.12 mph25%29.90 "Hg10 mi
3:35 pm59 °FSunny.13 mph26%29.90 "Hg10 mi
3:15 pm57 °FSunny.14 mph29%29.90 "Hg10 mi
2:55 pm57 °FSunny.16 mph32%29.91 "Hg10 mi
2:35 pm57 °FScattered clouds.21 mph32%29.92 "Hg10 mi
1:35 pm55 °FOvercast.22 mph28%29.91 "Hg10 mi
1:15 pm54 °FMore clouds than sun.21 mph31%29.90 "Hg10 mi
12:55 pm58 °FPartly sunny.14 mph19%29.88 "Hg10 mi
12:35 pm58 °FPartly sunny.18 mph22%29.88 "Hg10 mi
11:55 am55 °FCloudy.16 mph28%29.88 "Hg10 mi
11:35 am57 °FScattered clouds.13 mph28%29.88 "Hg10 mi
11:15 am56 °FSunny.15 mph31%29.88 "Hg10 mi
10:55 am55 °FScattered clouds.10 mph38%29.87 "Hg10 mi
10:35 am55 °FBroken clouds.13 mph47%29.86 "Hg10 mi
9:55 am53 °FSunny.13 mph49%29.86 "Hg10 mi
9:15 am50 °FPartly sunny.9 mph53%29.84 "Hg10 mi
8:55 am49 °FPartly sunny.10 mph60%29.83 "Hg10 mi
8:35 am47 °FOvercast.7 mph67%29.83 "Hg10 mi
8:15 am46 °FOvercast.9 mph70%29.85 "Hg10 mi
7:55 am46 °FOvercast.7 mph70%29.83 "Hg10 mi
7:35 am46 °FCloudy.9 mph62%29.83 "Hg10 mi
Weather by CustomWeather, © 2017

See weather overviewHow to use our weather pages